Probability
0 0 0 0 0 0 0 0 0 0 0 0 0 0 0 0 0 0 0 0 0 0 0 0 0 0 0 0 0 0 0 0 0 0 0 0 0 0
0 0 0 0 0 0 0 0 0 0 0 0 0 0 0 0 0 0 0 0 0 0 0 0 0 0 0 0 0 0 0 0 0 0 0 0 0 0
0 0 0 0 0 0 0 0 0 0 0 0 0 0 0 0 0 0 0 0 0 0 0 0 0 0 0 0 0 0 0 0 0 0 0 0 0 0
0 0 0 0 0 0 0 0 0 0 0 0 0 0 0 0 0 0 0 0 0 0 0 0 0 0 0 0 0 0 0 0 0 0 0 0 0 0
0 0 0 0 0 0 0 0 0 0 0 0 0 0 0 0 0 0 0 0 0 0 0 0 0 0 0 0 0 0 0 0 0 0 0 0 0 0
0 0 0 0 0 0 0 0 0 0 0 0 0 0 0 0 0 0 0 0 0 0 0 0 0 0 0 0 0 0 0 0 0 0 0 0 0 0
0 0 0 0 0 0 0 0 0 0 0 0 0 0 0 0 0 0 0 0 0 0 0 0 0 0 0 0 0 0 0 0 0 0 0 0 0 0
0 0 0 0 0 0 0 0 0 0 0 0 0 0 0 0 0 0 0 0 0 0 0 0 0 0 0 0 0 0 0 0 0 0 0 0 0 0
0 0 0 0 0 0 0 0 0 0 0 0 0 0 0 0 0 0 0 0 0 0 0 0 0 0 0 0 0 0 0 0 0 0 0 0 0 0
0 0 0 0 0 0 0 0 0 0 0 0 0 0 0 0 0 0 0 0 0 0 0 0 0 0 0 0 0 0 0 0 0 0 0 0 0 0
0 0 0 0 0 0 0 0 0 0 0 0 0 0 0 0 0 0 0 0 0 0 0 0 0 0 0 0 0 0 0 0 0 0 0 0 0 0
0 0 0 0 0 0 0 0 0 0 0 0 0 0 0 0 0 0 0 0 0 0 0 0 0 0 0 0 0 0 0 0 0 0 0 0 0 0
0 0 0 0 0 0 0 0 0 0 0 0 0 0 0 0 0 0 0 0 0 0 0 0 0 0 0 0 0 0 0 0 0 0 0 0 0 0
0 0 0 0 0 0 0 0 0 0 0 0 0 0 0 0 0 0 0 0 0 0 0 0 0 0 0 0 0 0 0 0 0 0 0 0 0 0
0 0 0 0 0 0 0 0 0 0 0 0 0 0 0 0 0 0 0 0 0 0 0 0 0 0 0 0 0 0 0 0 0 0 0 0 0 0
0 0 0 0 0 0 0 0 0 0 0 0 0 0 0 0 0 0 0 0 0 0 0 0 0 0 0 0 0 0 0 0 0 0 0 0 0 0
0 0 0 0 0 0 0 0 0 0 0 0 0 0 0 0 0 0 0 0 0 0 0 0 0 0 0 0 0 0 0 0 0 0 0 0 0 0
0 0 0 0 0 0 0 0 0 0 0 0 0 0 0 0 0 0 0 0 0 0 0 0 0 0 0 0 0 0 0 0 0 0 0 0 0 0
0 0 0 0 0 0 0 0 0 0 0 0 0 0 0 0 0 0 0 0 0 0 0 0 0 0 0 0 0 0 0 0 0 0 0 0 0 0
0 0 0 0 0 0 0 0 0 0 0 0 0 0 0 0 0 0 0 0 0 0 0 0 0 0 0 0 0 0 0 0 0 0 0 0 0 0
0 0 0 0 0 0 0 0 0 0 0 0 0 0 0 0 0 0 0 0 0 0 0 0 0 0 0 0 0 0 0 0 0 0 0 0 0 0
0 0 0 0 0 0 0 0 0 0 0 0 0 0 0 0 0 0 0 0 0 0 0 0 0 0 0 0 0 0 0 0 0 0 0 0 0 0
0 0 0 0 0 0 0 0 0 0 0 0 0 0 0 0 0 0 0 0 0 0 0 0 0 0 0 0 0 0 0 0 0 0 0 0 0 0
Height
5749 5748 5746 5745 5743 5741 5738 5736 5734 5732 5729 5727 5724 5721 5718 5715 5712 5709 5707 5704 5702 5699 5697 5695 5694 5692 5690 5688 5686 5685 5683 5682 5680 5678 5677 5675 5674 5672
5738 5736 5735 5733 5732 5730 5727 5725 5723 5721 5719 5716 5713 5710 5708 5705 5703 5700 5698 5696 5694 5692 5690 5688 5687 5685 5683 5682 5680 5679 5677 5676 5674 5672 5671 5669 5668 5666
5726 5725 5723 5722 5720 5718 5716 5714 5712 5710 5708 5705 5703 5700 5698 5696 5694 5692 5690 5688 5686 5685 5683 5681 5680 5678 5676 5675 5673 5672 5670 5669 5667 5666 5664 5663 5661 5660
5714 5712 5711 5710 5708 5706 5705 5703 5700 5698 5697 5695 5692 5690 5689 5687 5685 5683 5681 5680 5678 5677 5675 5674 5672 5671 5669 5668 5667 5665 5664 5662 5661 5659 5658 5657 5655 5654
5701 5700 5699 5697 5696 5694 5692 5691 5689 5687 5685 5684 5682 5681 5679 5678 5676 5675 5673 5672 5670 5669 5668 5666 5665 5664 5662 5661 5659 5658 5656 5655 5654 5652 5651 5650 5649 5647
5689 5687 5686 5685 5684 5682 5681 5679 5678 5676 5675 5673 5672 5671 5670 5668 5667 5666 5665 5664 5663 5661 5660 5659 5657 5656 5655 5653 5652 5650 5649 5647 5646 5644 5643 5642 5641 5640
5676 5675 5674 5672 5671 5670 5669 5668 5667 5666 5664 5663 5662 5661 5660 5660 5659 5658 5657 5656 5655 5654 5652 5651 5649 5648 5646 5645 5643 5642 5640 5639 5637 5636 5634 5633 5632 5631
5664 5663 5662 5661 5660 5659 5658 5657 5656 5655 5654 5654 5653 5652 5652 5651 5650 5649 5649 5648 5646 5646 5644 5643 5641 5639 5638 5636 5634 5633 5631 5629 5628 5626 5625 5623 5622 5621
5652 5651 5650 5649 5649 5648 5647 5647 5646 5645 5645 5645 5644 5644 5643 5642 5642 5641 5640 5639 5638 5636 5635 5633 5632 5630 5628 5627 5625 5623 5621 5620 5618 5616 5614 5613 5611 5610
5640 5640 5639 5638 5638 5637 5637 5637 5637 5636 5636 5636 5635 5635 5634 5634 5633 5632 5631 5630 5629 5627 5625 5624 5622 5621 5619 5617 5615 5613 5611 5609 5607 5605 5603 5601 5600 5598
5629 5629 5628 5628 5628 5627 5627 5627 5627 5627 5627 5627 5627 5626 5625 5625 5624 5623 5622 5621 5619 5618 5616 5614 5612 5610 5608 5607 5604 5602 5600 5598 5596 5594 5592 5589 5587 5585
5619 5619 5619 5618 5618 5618 5618 5618 5618 5618 5618 5618 5618 5617 5617 5616 5615 5614 5612 5611 5609 5608 5606 5604 5602 5600 5598 5596 5594 5591 5589 5587 5585 5582 5579 5577 5574 5572
5610 5610 5609 5609 5609 5609 5609 5609 5609 5610 5610 5609 5609 5609 5608 5607 5605 5604 5603 5601 5599 5598 5596 5593 5591 5589 5587 5584 5582 5580 5577 5575 5572 5569 5566 5564 5561 5558
5601 5601 5601 5601 5601 5601 5601 5601 5601 5601 5601 5601 5600 5599 5598 5597 5596 5594 5592 5590 5589 5587 5585 5582 5580 5577 5575 5572 5570 5567 5565 5562 5559 5556 5553 5550 5548 5545
5593 5593 5593 5593 5593 5593 5593 5593 5593 5592 5592 5592 5591 5590 5589 5587 5586 5584 5582 5580 5578 5576 5573 5571 5568 5566 5563 5560 5557 5555 5552 5550 5547 5544 5540 5537 5534 5531
5585 5585 5585 5585 5585 5585 5585 5585 5584 5584 5583 5583 5581 5580 5579 5577 5575 5573 5571 5569 5567 5565 5562 5559 5557 5554 5551 5548 5545 5542 5539 5537 5534 5531 5527 5523 5519 5517
5577 5577 5577 5577 5577 5577 5577 5576 5576 5575 5574 5573 5572 5570 5568 5567 5565 5563 5560 5558 5555 5553 5551 5548 5545 5542 5539 5536 5532 5529 5526 5523 5521 5517 5513 5509 5505 5502
5570 5570 5569 5569 5569 5569 5568 5568 5567 5566 5565 5563 5562 5560 5558 5556 5554 5551 5549 5546 5543 5541 5538 5536 5533 5530 5527 5523 5520 5516 5513 5510 5507 5504 5500 5496 5490 5486
5562 5562 5562 5561 5561 5560 5559 5559 5558 5556 5555 5553 5552 5550 5548 5545 5543 5540 5537 5535 5532 5529 5526 5523 5521 5517 5514 5510 5506 5502 5500 5496 5493 5489 5485 5482 5478 5472
5553 5553 5553 5552 5552 5551 5550 5549 5548 5546 5545 5543 5541 5539 5536 5534 5531 5529 5526 5523 5520 5516 5513 5510 5508 5505 5501 5498 5493 5488 5485 5482 5478 5474 5470 5467 5463 5458
5544 5544 5544 5543 5542 5541 5540 5539 5538 5536 5534 5532 5530 5528 5525 5522 5520 5517 5514 5511 5508 5504 5501 5497 5495 5492 5488 5485 5480 5475 5470 5467 5464 5460 5456 5452 5449 5444
5535 5535 5534 5533 5533 5532 5530 5529 5527 5525 5523 5521 5519 5516 5514 5511 5508 5505 5502 5499 5495 5492 5488 5485 5481 5478 5475 5471 5467 5462 5456 5452 5448 5445 5441 5437 5434 5430
5525 5525 5524 5523 5522 5521 5520 5518 5517 5515 5513 5510 5508 5505 5502 5500 5496 5493 5490 5487 5483 5480 5476 5472 5468 5465 5461 5457 5453 5448 5443 5438 5433 5429 5424 5420 5419 5416
Wind_Speed
47 46 45 45 45 44 44 44 43 43 43 42 42 42 41 40 38 36 34 33 31 29 27 26 25 25 24 23 23 23 23 23 23 22 22 22 23 23
47 47 46 46 45 45 44 44 44 44 43 42 42 41 40 38 36 35 33 32 30 28 27 26 25 25 24 23 23 23 23 23 23 23 23 23 22 22
48 47 47 46 46 45 45 45 44 44 43 42 42 40 38 36 35 33 32 31 29 28 27 25 25 25 24 24 24 24 24 23 23 23 23 23 23 23
48 48 47 47 46 46 45 45 44 43 42 41 40 38 36 35 34 32 31 30 29 27 26 25 25 25 25 25 25 25 24 24 24 24 23 23 24 24
47 47 47 46 46 45 45 44 43 42 41 39 38 36 35 34 33 31 30 29 28 27 26 25 25 26 26 26 26 26 26 26 26 26 26 25 25 25
46 46 46 46 45 44 43 43 42 40 39 37 36 34 33 32 31 30 29 28 27 27 26 27 27 27 28 28 28 28 28 28 28 28 28 28 28 28
46 45 45 44 43 42 41 40 39 38 37 35 33 32 31 30 30 29 28 28 28 28 28 28 28 29 29 29 29 29 30 30 30 30 30 31 31 31
44 43 43 42 41 40 39 38 37 35 34 32 31 31 30 29 29 29 29 29 29 29 29 29 29 30 30 31 31 31 31 32 32 32 32 33 33 34
42 42 41 40 39 38 37 36 34 32 31 30 30 29 29 29 29 29 29 30 30 30 30 31 31 31 32 32 32 32 33 33 34 34 35 35 36 36
40 39 39 38 37 36 34 33 32 31 30 29 28 28 29 29 30 30 30 30 31 31 32 32 32 33 33 33 33 33 33 34 35 36 37 37 38 39
37 36 35 34 34 34 33 32 31 30 29 28 28 28 29 29 30 30 30 31 31 32 32 33 33 33 33 34 34 34 34 35 36 37 38 39 40 40
34 34 33 32 32 32 31 30 29 29 29 29 29 29 29 30 30 31 31 31 32 32 33 33 33 34 34 35 35 36 36 36 37 38 39 40 40 41
32 31 31 31 31 31 30 30 29 29 29 29 30 30 31 31 32 32 32 32 32 33 33 34 35 35 36 37 37 37 38 38 39 39 40 40 40 41
30 30 29 30 30 30 29 29 29 29 29 30 31 31 32 32 32 32 33 32 33 34 34 35 36 37 37 38 38 38 38 38 39 39 39 40 40 41
28 28 28 28 28 28 28 28 28 29 30 30 31 32 33 33 33 33 33 34 34 35 36 37 37 37 38 38 38 39 39 39 39 39 40 41 42 42
26 26 26 27 27 27 27 28 28 29 30 31 32 33 33 34 34 34 35 35 36 36 37 37 38 38 38 39 39 40 40 40 40 41 41 42 43 43
23 24 24 25 25 26 26 27 28 29 30 31 32 33 33 34 35 35 36 37 38 38 38 38 38 38 39 39 40 40 41 41 41 41 42 43 44 43
23 23 24 24 25 26 27 28 29 30 31 32 33 33 34 35 36 37 37 38 38 38 39 39 39 39 40 41 41 42 42 42 42 43 42 42 43 44
25 25 26 26 27 28 29 29 30 31 32 33 34 35 36 37 37 38 38 39 39 40 40 40 40 40 40 41 42 43 43 44 44 44 43 42 43 45
27 27 27 28 28 29 30 31 32 33 33 34 35 36 37 38 38 38 39 39 40 41 42 41 41 40 41 41 43 45 45 44 44 44 44 44 43 44
28 29 29 29 30 30 31 32 33 33 34 35 36 37 37 38 38 39 40 40 41 41 41 41 41 41 42 42 43 44 46 46 45 45 45 44 44 44
29 30 31 31 32 32 32 33 33 34 35 35 36 37 37 38 38 39 40 40 40 41 41 42 42 42 43 43 43 44 46 47 47 45 45 45 43 42
31 32 32 32 32 32 33 33 34 34 34 35 35 36 36 37 38 39 39 40 40 41 41 42 43 43 43 44 44 44 45 46 46 46 47 47 44 43
Wind_Direction
279 280 280 282 283 284 285 286 286 287 288 289 290 291 291 291 291 291 290 290 290 290 290 290 290 291 292 293 292 291 291 290 289 289 287 286 285 282
278 279 280 281 282 283 284 284 285 286 286 287 288 288 288 288 288 288 287 287 287 287 287 287 288 289 291 292 291 292 291 291 290 289 287 286 286 284
277 278 279 280 281 282 282 283 283 284 284 286 287 286 285 285 285 285 284 285 285 285 285 285 287 288 290 291 291 292 291 290 290 290 288 287 285 284
277 277 278 278 279 280 281 281 282 282 283 283 284 282 282 283 282 282 282 282 282 282 283 284 285 287 289 290 290 290 290 290 290 288 288 287 285 283
276 276 277 278 278 279 279 279 280 280 280 281 280 280 279 279 279 280 280 280 280 280 281 283 285 287 288 289 289 289 289 288 288 287 286 285 284 283
275 276 276 277 277 277 278 278 278 278 278 278 277 277 277 277 278 278 278 277 278 280 281 283 284 286 287 288 288 288 288 287 286 286 285 284 283 282
276 276 275 276 276 276 276 276 276 275 275 275 274 274 275 275 276 276 276 277 278 280 282 283 285 286 287 287 287 288 287 287 286 285 285 283 282 281
276 275 275 275 275 275 274 273 273 273 272 272 272 272 274 274 274 275 276 278 279 280 282 283 285 286 286 286 287 287 287 286 286 285 284 283 282 281
276 275 274 273 272 271 271 270 270 270 270 270 270 272 273 274 275 277 278 280 281 282 283 284 285 285 286 286 286 286 286 286 285 285 285 284 283 282
274 273 272 271 270 269 268 268 267 267 267 268 270 272 274 275 277 278 280 281 282 283 284 285 285 286 286 286 286 287 286 286 286 286 285 284 283 283
273 271 269 268 267 266 266 265 266 266 266 268 270 272 275 277 279 280 281 283 284 284 285 285 286 286 286 286 287 287 286 286 286 286 286 286 284 283
271 269 268 266 265 264 264 264 264 264 266 267 270 273 276 278 280 282 283 284 284 285 286 286 286 286 287 287 287 287 287 287 287 287 287 287 285 284
270 268 266 265 265 265 264 265 265 265 266 268 271 274 277 279 281 282 284 285 285 286 286 286 287 287 287 288 288 288 288 288 288 289 289 288 287 285
269 267 267 267 266 265 265 266 266 268 269 271 274 277 279 281 283 284 286 286 286 287 287 288 288 288 288 288 288 288 289 289 289 290 289 289 288 286
269 267 267 267 267 266 267 268 270 271 273 275 278 280 282 283 285 286 286 287 287 288 288 289 288 289 289 289 289 289 290 290 290 290 290 289 288 287
269 268 268 269 269 269 270 271 272 274 276 279 281 282 283 285 286 286 286 287 288 288 289 289 288 288 289 289 289 290 290 291 291 291 291 290 289 287
269 270 270 270 271 272 274 275 277 278 280 281 282 283 284 285 286 287 287 288 288 288 288 289 289 289 289 290 290 290 291 292 292 293 292 291 290 288
269 270 271 272 273 274 275 277 279 280 282 282 283 284 285 286 287 287 288 288 288 288 288 289 289 289 289 289 289 290 291 292 293 293 293 292 291 290
268 270 271 273 274 276 277 279 281 282 283 284 284 285 286 287 287 288 288 288 287 288 289 289 290 290 290 290 291 291 292 293 294 294 293 292 291 290
269 271 273 274 276 278 279 281 282 283 284 285 286 287 287 288 288 288 288 288 288 289 290 290 290 290 291 291 292 292 293 293 294 294 294 293 292 291
269 271 274 276 278 279 281 282 283 284 285 286 287 288 288 289 289 289 290 289 290 290 290 291 291 291 291 292 292 293 294 294 294 294 294 293 293 292
270 272 275 277 279 280 282 283 284 286 287 288 288 289 289 289 290 290 291 291 291 291 291 292 292 292 293 293 294 294 294 295 295 295 294 294 293 291
272 274 276 278 279 281 282 283 285 287 288 289 290 290 291 291 291 292 292 292 292 292 292 293 293 294 294 294 295 295 295 295 296 296 296 295 293 291